User: anonymous   Login
Location: Newark
(50.4348°N, 30.5552°E)
Time: 11:06:54
(UTC+00:00)
Language:

A-11 Canister half - Orbit

View from above orbital plane
View from above orbital plane
View from above satellite
View from above satellite

Ground track
Ground track

The orbit data is extracted from the following two-line orbital elements,

1    53U 60009E   20025.83581234  .00000025  00000-0  10889-2 0  9991
2    53  47.2783 341.8811 0099461  15.8719 344.5152 12.17237566651070
Epoch (UTC): 25 January 2020 20:03:34
Eccentricity: 0.0099461
inclination: 47.2783°
perigee height: 1525 km
apogee height: 1684 km
right ascension of ascending node: 341.8811°
argument of perigee: 15.8719°
revolutions per day: 12.17237566
mean anomaly at epoch: 344.5152°
orbit number at epoch: 65107

The dashed part of the orbit path shows where the satellite is in the earth's shadow,  

DLR